This is the latest recevied weather packets stored in our database for station/object SV9TNF-52. If no packets are shown the sender has not sent any weather packets the latest 10 day(s).
| Time | Temp. | Humidity | Pressure | Rain* | Wind** | Luminosity | Snow |
|---|---|---|---|---|---|---|---|
| 1788523482 | 31.67° C | 52% | 1020 hPa | 0 mm | 4.92 m/s, 275° | - | - |
| 1788523182 | 31.11° C | 53% | 1020 hPa | 0 mm | 4.92 m/s, 267° | - | - |
| 1788522882 | 30.56° C | 54% | 1020 hPa | 0 mm | 6.26 m/s, 287° | - | - |
| 1788522581 | 30.56° C | 53% | 1020 hPa | 0 mm | 5.81 m/s, 258° | - | - |
| 1788522282 | 31.11° C | 52% | 1020 hPa | 0 mm | 4.92 m/s, 350° | - | - |
| 1788521982 | 31.11° C | 54% | 1020 hPa | 0 mm | 4.92 m/s, 270° | - | - |
| 1788521681 | 30.56° C | 54% | 1020 hPa | 0 mm | 5.81 m/s, 296° | - | - |
| 1788521381 | 31.11° C | 53% | 1020 hPa | 0 mm | 7.6 m/s, 59° | - | - |
| 1788521081 | 31.11° C | 54% | 1020 hPa | 0 mm | 4.47 m/s, 248° | - | - |
| 1788520781 | 30.56° C | 54% | 1020 hPa | 0 mm | 5.36 m/s, 212° | - | - |
| 1788520481 | 30.56° C | 53% | 1020 hPa | 0 mm | 9.39 m/s, 253° | - | - |
| 1788520181 | 31.11° C | 54% | 1020 hPa | 0 mm | 4.92 m/s, 317° | - | - |
| 1788519881 | 30° C | 53% | 1020 hPa | 0 mm | 7.15 m/s, 252° | - | - |
| 1788519581 | 30.56° C | 54% | 1020 hPa | 0 mm | 6.26 m/s, 351° | - | - |
| 1788519280 | 30.56° C | 53% | 1020 hPa | 0 mm | 9.83 m/s, 322° | - | - |
| 1788518980 | 30.56° C | 54% | 1020 hPa | 0 mm | 8.49 m/s, 75° | - | - |
| 1788518680 | 30° C | 54% | 1020 hPa | 0 mm | 8.05 m/s, 359° | - | - |
| 1788518380 | 30.56° C | 54% | 1020 hPa | 0 mm | 6.26 m/s, 226° | - | - |
| 1788518080 | 30.56° C | 54% | 1020 hPa | 0 mm | 8.49 m/s, 207° | - | - |
| 1788517780 | 30° C | 56% | 1020 hPa | 0 mm | 7.6 m/s, 44° | - | - |
| 1788517480 | 30° C | 55% | 1020 hPa | 0 mm | 4.02 m/s, 96° | - | - |
| 1788517180 | 30.56° C | 54% | 1020 hPa | 0 mm | 4.92 m/s, 16° | - | - |
| 1788516879 | 30.56° C | 55% | 1020 hPa | 0 mm | 4.02 m/s, 51° | - | - |
| 1788516579 | 30.56° C | 54% | 1020 hPa | 0 mm | 8.49 m/s, 279° | - | - |
| 1788516280 | 30.56° C | 53% | 1020 hPa | 0 mm | 5.36 m/s, 34° | - | - |
* Rain latest hour (hover to see other rain measurements)
** Current wind speed in m/s (hover to see current wind gust speed)